ラ・サグラ彗星

P/2009 QG31 ( La Sagra )

English version
Home page
Updated on March 5, 2011

---------------------------------------------------------------------

・ プロフィール

発見日 2009年8月19日
発見光度 18.4等
発見者 La Sagra Sky Survey

・ 写真集

・ 軌道要素

Epoch 2009 Oct. 16.0 TT = JDT 2455120.5
T 2009 Oct. 10.45403 TT                                 MPC
q   2.1477913            (2000.0)            P               Q
n   0.14585285     Peri.    5.93841     +0.99064729     +0.13483291
a   3.5743146      Node   346.25949     -0.12853474     +0.87067928
e   0.3991040      Incl.    5.05511     -0.04579050     +0.47300918
P   6.76
From 123 observations 2009 Aug. 16-Nov. 17, mean residual 0".5.

・ 光度変化

        m1 = 15.2 + 5 logΔ + 10.0 log r

---------------------------------------------------------------------

軌道要素はM.P.E.C. 2011-D06に掲載されたものです。
光度グラフはComet for Windowsで作成したものです。

---------------------------------------------------------------------

Copyright(C) Seiichi Yoshida (comet@aerith.net). All rights reserved.